Regional Weather Roundup
Issued by NWS Little Rock, AR

Home | Current Version | Previous Version | Graphics & Text | Print | Product List | Glossary On
Versions: 1 2 3 4 5 6 7 8 9 10 11 12 13 14 15 16 17 18 19 20 21 22 23 24 25 26 27 28 29 30 31
000
ASUS44 KLZK 240205
RWRLZK

WEATHER ROUNDUP FOR ARKANSAS
NATIONAL WEATHER SERVICE LITTLE ROCK AR
900 PM CDT TUE MAY 23 2017

NOTE: "FAIR" INDICATES FEW OR NO CLOUDS BELOW 12,000 FEET WITH NO
SIGNIFICANT WEATHER AND/OR OBSTRUCTIONS TO VISIBILITY.

ARZ001-003-010-029-240300-
NORTHWEST ARKANSAS

CITY           SKY/WX    TMP DP  RH WIND       PRES   REMARKS
FAYETTEVILLE   PTCLDY    56  53  90 CALM      29.80S
FORT SMITH     CLOUDY    62  53  72 W7        29.78F
HARRISON       PTCLDY    57  55  93 W5        29.77S
BENTONVILLE    CLOUDY    61  46  59 CALM      29.80S
ROGERS         CLOUDY    59  49  69 W5        29.80S
SILOAM SPGS    PTCLDY    59  46  63 W6        29.80S
HIGHFILL       CLOUDY    60  52  74 W5        29.80S
SPRINGDALE     PTCLDY    61  48  63 W5        29.81S
$$

ARZ004-005-016-240300-
NORTH CENTRAL ARKANSAS

CITY           SKY/WX    TMP DP  RH WIND       PRES   REMARKS
BATESVILLE     CLOUDY    63  57  82 CALM      29.72F
FLIPPIN        CLOUDY    61  52  72 W6        29.73S
MTN HOME       CLOUDY    60  56  86 CALM      29.75R
$$

ARZ040-041-240300-
WEST CENTRAL ARKANSAS

CITY           SKY/WX    TMP DP  RH WIND       PRES   REMARKS
MENA           CLOUDY    63  55  77 W6        29.80S
MOUNT IDA      CLOUDY    66  53  63 VRB3      29.75R
$$

ARZ009-017-025-026-028-240300-
NORTHEAST ARKANSAS

CITY           SKY/WX    TMP DP  RH WIND       PRES   REMARKS
JONESBORO      RAIN      61  58  90 NW8       29.72R
NEWPORT        LGT RAIN  61  58  90 NE8       29.71F
WALNUT RIDGE   CLOUDY    63  57  82 N3        29.71F
BLYTHEVILLE    LGT RAIN  64  60  87 W10       29.69R
$$

ARZ022-023-033-042-044-240300-
CENTRAL ARKANSAS

CITY           SKY/WX    TMP DP  RH WIND       PRES   REMARKS
LITTLE ROCK    CLOUDY    63  59  87 N8        29.72S
N LITTLE ROCK    N/A     62  58  86 N3        29.73S
JACKSONVILLE   CLOUDY    64  59  86 NW3       29.72S
CONWAY           N/A     66  57  72 NW12      29.73R
SEARCY         CLOUDY    62  60  93 NW5       29.73F
HOT SPRINGS    CLOUDY    69  55  60 NW9G17    29.74R
RUSSELLVILLE   CLOUDY    65  56  72 NW7       29.74S
CLINTON        CLOUDY    61  59  94 CALM      29.74S
$$

ARZ036-240300-
EAST ARKANSAS

CITY           SKY/WX    TMP DP  RH WIND       PRES   REMARKS
WEST MEMPHIS   CLOUDY    64  53  67 N10       29.68R
$$

ARZ050-053-066-070-073-240300-
SOUTHWEST ARKANSAS

CITY           SKY/WX    TMP DP  RH WIND       PRES   REMARKS
ARKADELPHIA      N/A     65  63  93 SW5       29.73S
CAMDEN         LGT RAIN  63  59  88 S3        29.74S
TEXARKANA      LGT RAIN  64  62  93 W9        29.76R
EL DORADO      LGT RAIN  63  62  97 W5        29.76R
DE QUEEN       LGT RAIN  62  57  83 NW6       29.77R
$$

ARZ056-057-069-240300-
SOUTHEAST ARKANSAS

CITY           SKY/WX    TMP DP  RH WIND       PRES   REMARKS
PINE BLUFF     CLOUDY    66  58  75 W9        29.70S
STUTTGART      CLOUDY    66  52  59 N6        29.72S
MONTICELLO       N/A     63  61  93 W3        29.70F

$$






USA.gov is the U.S. government's official web portal to all federal, state and local government web resources and services.